Mount Pleasant, IA

10:39 PM CDT on May 24, 2018 (GMT -0500)
Mount Pleasant Municipal

Weather History for KMPZ - February, 2013

Change the Weather History Date:

Thursday, February 21, 2013

  Actual Average Record
Temperature  
Mean Temperature 26 °F -  
Max Temperature 32 °F 41 °F 66 °F (1983)
Min Temperature 19 °F 23 °F -7 °F (1963)
Degree Days  
Heating Degree Days 40    
Moisture  
Dew Point 19 °F    
Average Humidity 71    
Maximum Humidity 79    
Minimum Humidity 60    
Precipitation  
Precipitation 0.01 in - - ()
Sea Level Pressure  
Sea Level Pressure 30.13 in    
Wind  
Wind Speed 12 mph (East)    
Max Wind Speed 25 mph    
Max Gust Speed 31 mph    
Visibility 6 miles    
Events Snow    
Averages and records for this station are not official NWS values.
T = Trace of Precipitation, MM = Missing Value Source: NWS Daily Summary

Daily Weather History Graph

Daily Weather History Graph

Search for Another Location

Airport or City:

Astronomy

Feb. 21, 2013 Rise Set
Actual Time 6:51 AM CST 5:48 PM CST
Civil Twilight 6:23 AM CST 6:15 PM CST
Nautical Twilight 5:51 AM CST 6:47 PM CST
Astronomical Twilight 5:20 AM CST 7:19 PM CST
Moon 2:02 PM CST (2/21) 3:57 AM CST (2/21)
Length of Visible Light 11h 52m
Length of Day
10h 56m
Waxing Gibbous, 84% of the Moon is Illuminated
Feb 21
Waxing Gibbous
Feb 25
Full
Mar 4
Last Quarter
Mar 11
New
Mar 19
First Quarter

Hourly Weather History & Observations

Time (CST) Temp. Windchill Dew Point Humidity Pressure Visibility Wind Dir Wind Speed Gust Speed Precip Events Conditions
12:15 AM 24.4 °F 14.9 °F 14.4 °F 66% 30.33 in 10.0 mi East 9.2 mph - N/A   Overcast
12:35 AM 24.3 °F 13.9 °F 13.8 °F 64% 30.34 in 10.0 mi East 10.4 mph - N/A   Overcast
12:55 AM 23.9 °F 14.2 °F 13.8 °F 65% 30.34 in 10.0 mi East 9.2 mph - N/A   Overcast
1:15 AM 23.5 °F 14.5 °F 13.6 °F 66% 30.34 in 10.0 mi East 8.1 mph - N/A   Mostly Cloudy
1:35 AM 23.0 °F 14.7 °F 13.1 °F 66% 30.34 in 10.0 mi East 6.9 mph - N/A   Scattered Clouds
1:55 AM 22.1 °F 15.9 °F 12.9 °F 68% 30.35 in 10.0 mi East 4.6 mph - N/A   Clear
2:15 AM 21.4 °F 15.1 °F 12.6 °F 69% 30.35 in 10.0 mi East 4.6 mph - N/A   Clear
2:35 AM 20.3 °F 12.5 °F 12.2 °F 71% 30.34 in 10.0 mi ENE 5.8 mph - N/A   Scattered Clouds
2:55 AM 21.6 °F 15.3 °F 13.5 °F 71% 30.34 in 10.0 mi NE 4.6 mph - N/A   Mostly Cloudy
3:15 AM 21.9 °F 13.4 °F 13.5 °F 70% 30.32 in 10.0 mi ENE 6.9 mph - N/A   Mostly Cloudy
3:35 AM 21.6 °F 13.0 °F 13.1 °F 70% 30.29 in 10.0 mi ENE 6.9 mph - N/A   Clear
3:55 AM 20.7 °F 11.9 °F 12.9 °F 72% 30.28 in 10.0 mi ENE 6.9 mph - N/A   Clear
4:15 AM 20.5 °F 12.8 °F 12.7 °F 72% 30.28 in 10.0 mi ENE 5.8 mph - N/A   Clear
4:35 AM 19.8 °F 13.2 °F 11.8 °F 71% 30.29 in 10.0 mi ENE 4.6 mph - N/A   Clear
4:55 AM 19.4 °F 10.4 °F 11.7 °F 72% 30.31 in 10.0 mi ENE 6.9 mph - N/A   Clear
5:15 AM 19.8 °F 11.9 °F 12.0 °F 72% 30.31 in 10.0 mi NE 5.8 mph - N/A   Clear
5:55 AM 20.3 °F 7.7 °F 12.6 °F 72% 30.25 in 10.0 mi ENE 12.7 mph - N/A   Mostly Cloudy
6:15 AM 20.3 °F 9.0 °F 12.2 °F 71% 30.26 in 10.0 mi ENE 10.4 mph - N/A   Clear
6:35 AM 21.0 °F 10.6 °F 12.7 °F 70% 30.28 in 10.0 mi East 9.2 mph - N/A   Clear
6:55 AM 21.6 °F 12.1 °F 12.9 °F 69% 30.28 in 10.0 mi East 8.1 mph - N/A   Clear
7:15 AM 21.9 °F 12.5 °F 13.1 °F 69% 30.30 in 10.0 mi East 8.1 mph - N/A   Clear
7:35 AM 22.1 °F 9.5 °F 13.1 °F 68% 30.27 in 10.0 mi ENE 13.8 mph - N/A   Clear
7:55 AM 22.1 °F 8.9 °F 13.1 °F 68% 30.25 in 10.0 mi ENE 15.0 mph 20.7 mph N/A   Clear
8:15 AM 23.0 °F 10.6 °F 13.8 °F 68% 30.28 in 10.0 mi East 13.8 mph - N/A   Clear
8:35 AM 23.7 °F 11.5 °F 13.8 °F 66% 30.28 in 10.0 mi East 13.8 mph 19.6 mph N/A   Clear
8:55 AM 24.3 °F 11.2 °F 14.0 °F 65% 30.27 in 10.0 mi East 16.1 mph - N/A   Clear
9:15 AM 25.0 °F 13.1 °F 14.7 °F 65% 30.28 in 10.0 mi East 13.8 mph - N/A   Clear
9:35 AM 25.7 °F 13.1 °F 14.9 °F 64% 30.27 in 10.0 mi East 16.1 mph 20.7 mph N/A   Clear
9:55 AM 26.1 °F 12.3 °F 15.3 °F 64% 30.24 in 10.0 mi East 19.6 mph 24.2 mph N/A   Clear
10:15 AM 26.6 °F 13.4 °F 15.6 °F 63% 30.25 in 10.0 mi East 18.4 mph 23.0 mph N/A   Clear
10:35 AM 27.1 °F 13.8 °F 15.8 °F 62% 30.24 in 10.0 mi East 19.6 mph 24.2 mph N/A   Scattered Clouds
10:55 AM 27.3 °F 15.6 °F 15.6 °F 61% 30.23 in 10.0 mi East 15.0 mph - N/A   Clear
11:15 AM 28.2 °F 16.8 °F 16.0 °F 60% 30.23 in 10.0 mi East 15.0 mph 23.0 mph N/A   Mostly Cloudy
11:35 AM 29.1 °F 17.5 °F 17.1 °F 61% 30.21 in 10.0 mi East 16.1 mph 20.7 mph N/A   Overcast
12:15 PM 30.0 °F 18.7 °F 17.6 °F 60% 30.19 in 10.0 mi East 16.1 mph 23.0 mph N/A   Overcast
12:35 PM 30.4 °F 19.1 °F 18.1 °F 60% 30.16 in 10.0 mi East 16.1 mph 21.9 mph N/A   Overcast
12:55 PM 30.6 °F 19.0 °F 18.3 °F 60% 30.16 in 10.0 mi East 17.3 mph 20.7 mph N/A   Overcast
1:15 PM 30.7 °F 20.4 °F 18.7 °F 61% 30.15 in 10.0 mi East 13.8 mph 20.7 mph N/A   Overcast
1:35 PM 30.9 °F 19.1 °F 18.9 °F 61% 30.12 in 10.0 mi East 18.4 mph 24.2 mph N/A   Overcast
1:55 PM 31.1 °F 18.3 °F 19.2 °F 61% 30.12 in 10.0 mi East 21.9 mph - N/A   Overcast
2:15 PM 31.1 °F 20.1 °F 19.4 °F 62% 30.11 in 10.0 mi East 16.1 mph - N/A   Overcast
2:35 PM 31.1 °F 20.1 °F 21.0 °F 66% 30.10 in 2.0 mi East 16.1 mph - N/A Snow Light Snow
2:55 PM 30.7 °F 18.5 °F 22.1 °F 70% 30.07 in 1.5 mi East 19.6 mph - N/A Snow Light Snow
3:15 PM 30.2 °F 17.8 °F 23.4 °F 76% 30.04 in 0.5 mi ENE 19.6 mph - N/A Snow Light Snow
3:35 PM 30.7 °F 20.4 °F 24.4 °F 77% 30.07 in 0.5 mi East 13.8 mph - N/A Snow Snow
3:55 PM 30.9 °F 19.1 °F 24.8 °F 78% 30.03 in 0.5 mi East 18.4 mph - N/A Snow Light Snow
4:15 PM 30.9 °F 20.2 °F 24.8 °F 78% 30.02 in 0.5 mi East 15.0 mph - N/A Snow Snow
4:35 PM 31.1 °F 19.7 °F 25.3 °F 79% 29.98 in 0.5 mi ENE 17.3 mph - N/A Snow Light Snow
4:55 PM 31.6 °F 20.4 °F 25.3 °F 78% 29.99 in 1.5 mi ENE 17.3 mph 25.3 mph N/A Snow Light Snow
5:15 PM 31.8 °F 19.9 °F 25.3 °F 77% 29.96 in 1.0 mi ENE 19.6 mph - N/A Snow Light Snow
5:35 PM 32.0 °F 19.5 °F 25.0 °F 75% 29.95 in 3.0 mi ENE 21.9 mph 25.3 mph N/A Snow Light Snow
5:55 PM 31.8 °F 18.4 °F 25.2 °F 76% 29.93 in 1.2 mi East 25.3 mph 31.1 mph N/A Snow Light Snow
6:15 PM 31.6 °F 19.0 °F 25.5 °F 78% 29.93 in 1.2 mi ENE 21.9 mph 27.6 mph N/A Snow Light Snow
6:35 PM 31.6 °F 19.3 °F 25.5 °F 78% 29.93 in 1.8 mi East 20.7 mph 25.3 mph N/A Snow Light Snow
6:55 PM 31.6 °F 20.0 °F 25.5 °F 78% 29.92 in 1.5 mi East 18.4 mph 25.3 mph N/A Snow Light Snow
7:35 PM 31.6 °F 20.4 °F 25.5 °F 78% 29.90 in 1.5 mi East 17.3 mph 25.3 mph 0.01 in Snow Light Snow
7:55 PM 31.5 °F 18.5 °F 25.3 °F 78% 29.90 in 1.5 mi East 23.0 mph 28.8 mph 0.01 in Snow Light Snow
8:15 PM 31.1 °F 18.9 °F 25.3 °F 79% 29.90 in 1.0 mi East 19.6 mph - N/A Snow Snow
8:35 PM 31.1 °F 18.0 °F 25.3 °F 79% 29.89 in 1.0 mi East 23.0 mph - N/A Snow Light Snow
8:55 PM 30.7 °F 18.8 °F 24.8 °F 79% 29.88 in 1.0 mi East 18.4 mph 26.5 mph N/A Snow Light Snow
9:15 PM 30.6 °F 18.6 °F 24.8 °F 79% 29.89 in 1.0 mi East 18.4 mph - N/A Snow Light Snow
9:35 PM 30.2 °F 18.9 °F 24.4 °F 79% 29.89 in 1.2 mi East 16.1 mph - N/A Snow Light Snow
9:55 PM 30.2 °F 18.9 °F 24.3 °F 79% 29.88 in 1.0 mi East 16.1 mph - N/A Snow Light Snow
10:15 PM 30.0 °F 19.1 °F 24.3 °F 79% 29.87 in 1.0 mi East 15.0 mph - N/A Snow Light Snow
10:35 PM 29.8 °F 19.3 °F 23.9 °F 79% 29.87 in 1.2 mi East 13.8 mph - N/A Snow Light Snow
10:55 PM 30.0 °F 19.5 °F 23.9 °F 78% 29.86 in 1.5 mi East 13.8 mph - N/A Snow Light Snow
11:15 PM 29.8 °F 18.9 °F 23.9 °F 79% 29.86 in 0.8 mi East 15.0 mph - N/A Snow Snow
11:35 PM 29.8 °F 19.3 °F 23.9 °F 79% 29.85 in 2.5 mi East 13.8 mph - N/A Snow Light Snow
11:55 PM 30.0 °F 19.5 °F 23.9 °F 78% 29.84 in 4.0 mi East 13.8 mph - N/A Snow Light Snow